Rbgn^[z[y[W
メイン
   新天体発見情報
     Comet C/2019 O3 (Palomar)
投稿するにはまず登録を

スレッド表示 | 新しいものから 前のトピック | 次のトピック | 下へ
投稿者 スレッド
佐藤裕久
投稿日時: 2020-7-23 14:29
モデレータ
登録日: 2005-6-12
居住地: 日本
投稿: 2129
オンライン
Comet C/2019 O3 (Palomar)

2019年7月26.日UT、Q.-Z. Ye (測定はYe F. J. Masci)が Palomarにある1.2-m f/2.4 Oschin 
Schmidt望遠鏡で得た画像から外見上の小惑星状天体を発見した。
MPEC 2019-P55に仮符号A/2019 O3が与えられた。
R. Haver (Rome, イタリア, Frasso Sabino天文台, 36.9-cm Cassegrain反射望遠鏡, 7月
18.932日UT、90秒露出21枚のスタック; 3".6のシーイングで4".8のコマむが見え、p.a. 170°
に8"のかすかな扇状の尾がある)CCD位置観測者により彗星状と観測された。

彗星機能の追加報告は次の通り:

OC   Date        Reporter           Coma    Tail    PA          Exposures
157  2020-07-18  R. Haver             5"      8"    160-170
K63  2020-07-19  G. Baj              10"      6"    174
204  2020-07-20  L. Buzzi            10"     10"    190          30x60s
658  2020-07-21  D. Green             5"      9"    200

発見位置は次のとおり、

     2019 UT             R.A. (2000) Decl.       Mag.
     May  14.48384   20 10 16.90   + 8 17 28.7   20.1
     June  5.40282   20 04 32.05   +10 02 20.2   19.4
          11.42093   20 02 23.96   +10 28 04.7   20.2
          11.47097   20 02 22.83   +10 28 17.3   19.6
          14.44291   20 01 14.87   +10 40 22.2   20.2
          14.44322   20 01 14.86   +10 40 22.5   20.1
          14.47357   20 01 14.11   +10 40 29.5   19.6
          14.47361   20 01 14.12   +10 40 30.0   19.5
     July 10.30180   19 49 42.44   +12 05 13.6   19.2
          10.33510   19 49 41.43   +12 05 18.9   19.4
          24.31650   19 42 46.97   +12 33 53.2   19.7
          26.22325   19 41 50.43   +12 36 48.6   19.3
          26.23258   19 41 50.14   +12 36 49.4   19.2
          26.25010   19 41 49.64   +12 36 51.1   19.1
          26.25499   19 41 49.47   +12 36 51.4   19.3
          26.26947   19 41 49.04   +12 36 52.7   19.3


MPCの双曲線線軌道要素、位置推算表は次のとおり、

Orbital elements:
    C/2019 O3 (Palomar)                                                         
Epoch 2021 Mar. 7.0 TT = JDT 2459280.5                                          
T 2021 Mar. 7.98882 TT                                  Rudenko                 
q   8.8194095            (2000.0)            P               Q                  
z  -0.0002579      Peri.   60.05046     +0.25489765     -0.43682304             
 +/-0.0000018      Node   300.38091     -0.73850585     +0.48796628             
e   1.0022749      Incl.   89.81525     +0.62420854     +0.75569474             
From 202 observations 2019 May 14-2020 July 21, mean residual 0".4.             
                                                                                
    C/2019 O3 (Palomar)                                                         
Epoch 2020 May 31.0 TT = JDT 2459000.5                                          
T 2021 Mar. 7.20963 TT                                  Rudenko                 
q   8.8198854            (2000.0)            P               Q                  
z  -0.0001671      Peri.   60.00719     +0.25522755     -0.43662126             
 +/-0.0000018      Node   300.38039     -0.73887413     +0.48741332             
e   1.0014741      Incl.   89.81494     +0.62363765     +0.75616806             
From 202 observations 2019 May 14-2020 July 21, mean residual 0".4.             
                                                                                
Ephemeris:
Date    TT    R. A. (2000) Decl.     Delta      r    Elong.  Phase   m1
2020 06 21    19 42 59.5 +30 16 35   8.3837  8.9467   120.8     5.6  17.6
...
2020 07 06    19 34 32.2 +31 18 23   8.3048  8.9326   125.4     5.3  17.6
...
2020 07 14    19 29 45.5 +31 42 08   8.2818  8.9253   126.6     5.2  17.6
...
2020 07 20    19 26 08.3 +31 55 34   8.2735  8.9201   126.9     5.2  17.6
2020 07 21    19 25 32.2 +31 57 26   8.2728  8.9192   126.8     5.2  17.6
2020 07 22    19 24 56.1 +31 59 12   8.2724  8.9184   126.8     5.2  17.6
...
2020 07 28    19 21 21.6 +32 07 38   8.2743  8.9133   126.3     5.3  17.6
...
2020 08 05    19 16 44.5 +32 13 18   8.2882  8.9067   124.8     5.4  17.6
...
2020 08 20    19 08 53.0 +32 08 20   8.3475  8.8950   119.9     5.7  17.6

(MPEC 2020-O64、CBET 4817)

スレッド表示 | 新しいものから 前のトピック | 次のトピック | トップ

投稿するにはまず登録を
 
© 1999 Tsutomu Seki.